GW0029 Weather Reports


Display with metric or nautical units.
time (UTC)temp
F
wind
direction
speed
MPH
gust
MPH
rain 1hr
in
rain 24hr
in
rain mn
in
humidity
%
barometer
mb
20260902115504 64 251 2.0 6.0 0.00 0.05 0.05 90 1011.0
20260902115005 64 206 2.0 6.0 0.00 0.05 0.05 89 1011.0
20260902114503 64 219 1.0 6.0 0.00 0.05 0.05 89 1011.0
20260902114005 64 287 2.0 10.0 0.00 0.05 0.05 89 1012.0
20260902113504 65 262 3.0 10.0 0.00 0.05 0.05 89 1012.0
20260902113005 65 223 3.0 9.0 0.00 0.00 0.00 89 1012.0
20260902112503 66 224 4.0 9.0 0.00 0.00 0.00 88 1011.0
20260902112005 66 242 4.0 10.0 0.00 0.00 0.00 87 1011.0
20260902111503 66 240 5.0 10.0 0.00 0.00 0.00 86 1011.0
20260902111004 67 220 5.0 10.0 0.00 0.00 0.00 85 1012.0
20260902110503 67 214 5.0 12.0 0.00 0.00 0.00 85 1012.0
20260902110007 68 231 5.0 12.0 0.00 0.00 0.00 85 1012.0
20260902105504 68 223 5.0 11.0 0.00 0.00 0.00 84 1012.0
20260902105004 68 215 5.0 11.0 0.00 0.00 0.00 84 1012.0
20260902104504 68 216 6.0 11.0 0.00 0.00 0.00 84 1012.0
20260902104005 68 224 6.0 14.0 0.00 0.00 0.00 83 1012.0
20260902103503 68 225 4.0 14.0 0.00 0.00 0.00 84 1012.0
20260902103004 68 234 5.0 10.0 0.00 0.00 0.00 84 1012.0
20260902102005 68 217 4.0 13.0 0.00 0.00 0.00 85 1011.0
20260902101504 68 229 5.0 13.0 0.00 0.00 0.00 84 1011.0
20260902101004 68 236 5.0 10.0 0.00 0.00 0.00 84 1012.0
20260902100005 68 240 6.0 12.0 0.00 0.00 0.00 84 1012.0
20260902095005 68 207 5.0 11.0 0.00 0.00 0.00 85 1012.0
20260902094504 68 228 5.0 14.0 0.00 0.00 0.00 85 1012.0
20260902094004 67 221 5.0 14.0 0.00 0.00 0.00 85 1011.0
20260902093503 67 215 5.0 11.0 0.00 0.00 0.00 85 1011.0
20260902093005 67 238 5.0 11.0 0.00 0.00 0.00 85 1011.0
20260902092503 67 232 5.0 11.0 0.00 0.00 0.00 84 1011.0
20260902092005 67 209 4.0 11.0 0.00 0.00 0.00 86 1011.0
20260902091504 67 222 3.0 7.0 0.00 0.00 0.00 86 1011.0
20260902090503 67 241 5.0 11.0 0.00 0.00 0.00 87 1011.0
20260902085005 67 228 5.0 10.0 0.00 0.00 0.00 86 1011.0
20260902084504 67 227 5.0 8.0 0.00 0.00 0.00 86 1011.0
20260902084005 67 220 4.0 9.0 0.00 0.00 0.00 87 1012.0
20260902083503 67 226 4.0 9.0 0.00 0.00 0.00 87 1012.0
20260902083004 66 242 5.0 9.0 0.00 0.00 0.00 88 1012.0
20260902082503 66 229 4.0 8.0 0.00 0.00 0.00 88 1013.0
20260902082004 65 219 4.0 11.0 0.00 0.00 0.00 89 1013.0
20260902081503 65 238 4.0 11.0 0.00 0.00 0.00 88 1013.0
20260902081005 65 246 4.0 12.0 0.00 0.00 0.00 88 1012.0
20260902080503 65 242 4.0 12.0 0.00 0.00 0.00 89 1012.0
20260902080007 65 229 4.0 15.0 0.00 0.00 0.00 89 1012.0
20260902075503 65 208 4.0 15.0 0.00 0.00 0.00 89 1012.0
20260902074504 64 243 4.0 8.0 0.00 0.00 0.00 89 1012.0
20260902074005 64 253 5.0 14.0 0.00 0.00 0.00 89 1012.0
20260902073504 64 246 4.0 14.0 0.00 0.00 0.00 91 1012.0
20260902073004 64 256 3.0 12.0 0.00 0.00 0.00 92 1012.0
20260902072504 63 292 4.0 12.0 0.00 0.00 0.00 91 1012.0
20260902072005 63 285 3.0 7.0 0.00 0.00 0.00 92 1012.0
20260902071503 63 264 2.0 7.0 0.00 0.00 0.00 93 1012.0
20260902071005 63 252 2.0 8.0 0.00 0.00 0.00 93 1012.0
20260902070504 63 242 3.0 8.0 0.00 0.00 0.00 93 1012.0
20260902070007 62 233 3.0 8.0 0.00 0.00 0.00 93 1012.0
20260902065005 62 248 2.0 8.0 0.00 0.00 0.00 94 1012.0
20260902064503 61 252 3.0 8.0 0.00 0.00 0.00 94 1012.0
20260902064005 61 250 2.0 8.0 0.00 0.00 0.00 94 1012.0
20260902063504 61 241 2.0 6.0 0.00 0.00 0.00 95 1012.0
20260902063005 61 222 2.0 10.0 0.00 0.00 0.00 95 1012.0
20260902062503 61 238 3.0 10.0 0.00 0.00 0.00 95 1012.0
20260902062005 61 258 2.0 8.0 0.00 0.00 0.00 95 1012.0
20260902061504 61 266 2.0 6.0 0.00 0.00 0.00 95 1012.0
20260902061005 61 247 2.0 6.0 0.00 0.00 0.00 96 1012.0
20260902060503 61 240 2.0 9.0 0.00 0.00 0.00 96 1012.0
20260902060004 61 244 2.0 9.0 0.00 0.00 0.00 96 1012.0
20260902055504 60 265 3.0 10.0 0.00 0.00 0.00 96 1012.0
20260902055005 60 291 3.0 10.0 0.00 0.00 0.00 96 1012.0
20260902054504 60 247 4.0 11.0 0.00 0.00 0.00 95 1012.0
20260902053504 60 205 2.0 8.0 0.00 0.00 0.00 96 1012.0
20260902052503 60 262 3.0 7.0 0.00 0.00 0.00 96 1012.0
20260902052005 60 253 2.0 7.0 0.00 0.00 0.00 96 1012.0
20260902050504 60 224 3.0 9.0 0.00 0.00 0.00 95 1012.0
20260902050007 60 222 2.0 5.0 0.00 0.00 0.00 95 1012.0
20260902045503 60 239 3.0 9.0 0.00 0.00 0.00 95 1012.0
20260902044503 60 230 3.0 7.0 0.00 0.00 0.00 94 1012.0
20260902044005 60 242 4.0 8.0 0.00 0.00 0.00 94 1012.0
20260902043504 60 231 4.0 10.0 0.00 0.00 0.00 94 1012.0
20260902043005 60 216 3.0 10.0 0.00 0.00 0.00 93 1012.0
20260902042503 60 231 3.0 7.0 0.00 0.00 0.00 93 1012.0
20260902042005 60 231 4.0 8.0 0.00 0.00 0.00 93 1012.0
20260902041504 60 216 4.0 8.0 0.00 0.00 0.00 93 1012.0
20260902040503 60 264 3.0 11.0 0.00 0.00 0.00 93 1012.0
20260902040005 60 219 3.0 8.0 0.00 0.00 0.00 93 1012.0
20260902035504 60 221 2.0 8.0 0.00 0.00 0.00 93 1012.0
20260902035005 60 222 2.0 7.0 0.00 0.00 0.00 92 1012.0
20260902034005 59 223 2.0 7.0 0.00 0.00 0.00 92 1013.0
20260902033004 59 249 3.0 9.0 0.00 0.00 0.00 92 1013.0
20260902032503 59 259 2.0 9.0 0.00 0.00 0.00 92 1012.0
20260902032004 59 249 2.0 7.0 0.00 0.00 0.00 91 1012.0
20260902030503 59 234 3.0 10.0 0.00 0.00 0.00 91 1012.0
20260902030005 59 221 3.0 10.0 0.00 0.00 0.00 91 1012.0
20260902025504 59 224 2.0 8.0 0.00 0.00 0.00 91 1011.0
20260902025005 59 243 1.0 7.0 0.00 0.00 0.00 91 1011.0
20260902024005 59 232 2.0 8.0 0.00 0.00 0.00 91 1012.0
20260902023504 58 253 2.0 8.0 0.00 0.00 0.00 91 1012.0
20260902023004 58 266 2.0 5.0 0.00 0.00 0.00 91 1012.0
20260902022503 58 256 2.0 5.0 0.00 0.00 0.00 91 1012.0
20260902022005 58 248 1.0 5.0 0.00 0.00 0.00 91 1012.0
20260902021503 58 260 1.0 4.0 0.00 0.00 0.00 90 1012.0
20260902021005 58 247 1.0 4.0 0.00 0.00 0.00 90 1012.0
20260902020503 58 208 1.0 6.0 0.00 0.00 0.00 90 1012.0
20260902020005 58 223 1.0 6.0 0.00 0.00 0.00 90 1012.0
20260902015503 58 252 1.0 6.0 0.00 0.00 0.00 90 1012.0
20260902015004 58 223 1.0 6.0 0.00 0.00 0.00 90 1012.0
20260902014503 58 241 1.0 5.0 0.00 0.00 0.00 90 1012.0
20260902014004 58 257 1.0 6.0 0.00 0.00 0.00 90 1011.0
20260902013503 58 247 1.0 7.0 0.00 0.00 0.00 89 1011.0
20260902013005 58 265 3.0 8.0 0.00 0.00 0.00 89 1011.0
20260902012503 57 267 3.0 8.0 0.00 0.00 0.00 89 1012.0
20260902012005 57 259 3.0 11.0 0.00 0.00 0.00 89 1012.0
20260902011503 58 257 3.0 11.0 0.00 0.00 0.00 89 1012.0
20260902011005 58 277 3.0 9.0 0.00 0.00 0.00 89 1011.0
20260902010504 58 289 3.0 8.0 0.00 0.00 0.00 89 1011.0
20260902010005 57 270 3.0 8.0 0.00 0.00 0.00 89 1011.0
20260902005504 57 261 3.0 9.0 0.00 0.00 0.00 88 1011.0
20260902005005 57 265 3.0 9.0 0.00 0.00 0.00 88 1011.0
20260902004503 57 255 3.0 12.0 0.00 0.00 0.00 88 1011.0
20260902003503 57 274 3.0 9.0 0.00 0.00 0.00 88 1011.0
20260902003005 57 274 3.0 8.0 0.00 0.00 0.00 88 1011.0
20260902002504 57 284 4.0 10.0 0.00 0.00 0.00 87 1012.0
20260902002004 57 286 5.0 10.0 0.00 0.00 0.00 88 1012.0
20260902000504 58 270 4.0 10.0 0.00 0.00 0.00 86 1012.0
20260902000005 58 272 5.0 8.0 0.00 0.00 0.00 86 1011.0
20260901235504 58 274 5.0 12.0 0.00 0.00 0.00 86 1011.0
20260901235005 59 281 5.0 12.0 0.00 0.00 0.00 85 1011.0
20260901234505 59 276 5.0 11.0 0.00 0.00 0.00 85 1011.0
20260901234005 59 270 7.0 15.0 0.00 0.00 0.00 85 1011.0
20260901233504 60 272 8.0 15.0 0.00 0.00 0.00 85 1011.0
20260901233005 60 274 7.0 12.0 0.00 0.00 0.00 86 1011.0
20260901232503 60 275 8.0 17.0 0.00 0.00 0.00 86 1012.0
20260901232005 60 268 8.0 17.0 0.00 0.00 0.00 86 1012.0
20260901231504 60 268 7.0 16.0 0.00 0.00 0.00 86 1012.0
20260901231005 60 276 6.0 13.0 0.00 0.00 0.00 86 1012.0
20260901230503 60 277 7.0 12.0 0.00 0.00 0.00 86 1012.0
20260901230005 60 270 7.0 14.0 0.00 0.00 0.00 87 1012.0
20260901225504 60 267 7.0 14.0 0.00 0.00 0.00 87 1012.0
20260901224504 60 276 6.0 18.0 0.00 0.00 0.00 87 1012.0
20260901224005 60 279 5.0 11.0 0.00 0.00 0.00 88 1011.0
20260901223503 60 275 6.0 15.0 0.00 0.00 0.00 88 1011.0
20260901223006 60 272 7.0 15.0 0.00 0.00 0.00 88 1011.0
20260901222005 60 278 5.0 10.0 0.00 0.00 0.00 88 1012.0
20260901221503 60 278 7.0 12.0 0.00 0.00 0.00 88 1012.0
20260901221005 60 272 7.0 14.0 0.00 0.00 0.00 87 1011.0
20260901220503 60 268 7.0 14.0 0.00 0.00 0.00 87 1011.0
20260901220005 60 271 6.0 13.0 0.00 0.00 0.00 87 1011.0
20260901215504 60 282 6.0 14.0 0.00 0.00 0.00 88 1012.0
20260901215005 60 273 8.0 14.0 0.00 0.00 0.00 88 1012.0
20260901214504 60 260 7.0 12.0 0.00 0.00 0.00 88 1012.0
20260901214005 60 266 7.0 15.0 0.00 0.00 0.00 88 1012.0
20260901213005 60 267 7.0 17.0 0.00 0.00 0.00 88 1012.0
20260901212503 60 272 7.0 17.0 0.00 0.00 0.00 88 1012.0
20260901211504 60 265 7.0 12.0 0.00 0.00 0.00 88 1012.0
20260901210503 60 256 2.0 10.0 0.00 0.00 0.00 89 1012.0
20260901210005 60 248 0.0 5.0 0.00 0.00 0.00 90 1012.0
20260901205505 60 260 0.0 6.0 0.00 0.00 0.00 90 1012.0
20260901205005 60 260 0.0 6.0 0.00 0.00 0.00 89 1012.0
20260901204005 60 264 1.0 6.0 0.00 0.00 0.00 89 1012.0
20260901203505 60 253 2.0 6.0 0.00 0.00 0.00 89 1012.0
20260901203005 60 258 2.0 7.0 0.00 0.00 0.00 89 1012.0
20260901202004 60 258 3.0 8.0 0.00 0.00 0.00 89 1012.0
20260901201504 60 254 3.0 8.0 0.00 0.00 0.00 89 1012.0
20260901201005 60 263 4.0 8.0 0.00 0.00 0.00 89 1012.0
20260901200005 60 263 4.0 8.0 0.00 0.00 0.00 89 1012.0
20260901195504 60 270 4.0 10.0 0.00 0.00 0.00 89 1012.0
20260901195005 60 270 4.0 10.0 0.00 0.00 0.00 89 1012.0
20260901194503 61 265 4.0 9.0 0.00 0.00 0.00 88 1012.0
20260901194005 61 264 4.0 11.0 0.00 0.00 0.00 88 1012.0
20260901193503 61 271 4.0 11.0 0.00 0.00 0.00 88 1012.0
20260901193004 61 285 4.0 8.0 0.00 0.00 0.00 88 1012.0
20260901192503 61 277 4.0 8.0 0.00 0.00 0.00 88 1012.0
20260901192005 60 266 4.0 8.0 0.00 0.00 0.00 88 1012.0
20260901191504 60 271 4.0 8.0 0.00 0.00 0.00 88 1012.0
20260901191005 61 266 3.0 8.0 0.00 0.00 0.00 87 1012.0
20260901190504 60 272 3.0 10.0 0.00 0.00 0.00 87 1012.0
20260901190005 60 278 5.0 10.0 0.00 0.00 0.00 87 1012.0
20260901185503 60 273 5.0 12.0 0.00 0.00 0.00 87 1012.0
20260901185005 60 275 3.0 12.0 0.00 0.00 0.00 87 1012.0
20260901184503 60 277 2.0 6.0 0.00 0.00 0.00 87 1012.0
20260901184005 60 273 3.0 8.0 0.00 0.00 0.00 87 1012.0
20260901183504 61 282 3.0 8.0 0.00 0.00 0.00 87 1012.0
20260901182504 61 255 1.0 5.0 0.00 0.00 0.00 87 1011.0
20260901182005 61 259 2.0 9.0 0.00 0.00 0.00 87 1011.0
20260901181004 62 273 6.0 12.0 0.00 0.00 0.00 86 1011.0
20260901180503 62 277 5.0 10.0 0.00 0.00 0.00 86 1011.0
20260901180005 62 282 2.0 8.0 0.00 0.00 0.00 86 1011.0
20260901175504 62 277 1.0 9.0 0.00 0.00 0.00 87 1011.0
20260901175005 62 278 2.0 9.0 0.00 0.00 0.00 86 1011.0
20260901173005 63 286 1.0 5.0 0.00 0.00 0.00 85 1011.0
20260901172504 63 271 0.0 5.0 0.00 0.00 0.00 85 1011.0
20260901172005 63 283 0.0 5.0 0.00 0.00 0.00 85 1011.0
20260901171504 63 0 0.0 0.0 0.00 0.00 0.00 86 1011.0
20260901171005 63 0 0.0 0.0 0.00 0.00 0.00 85 1011.0
20260901170504 63 276 0.0 6.0 0.00 0.00 0.00 85 1011.0
20260901170005 64 267 0.0 6.0 0.00 0.00 0.00 84 1011.0
20260901165504 64 272 1.0 10.0 0.00 0.00 0.00 85 1011.0
20260901165005 64 277 2.0 10.0 0.00 0.00 0.00 85 1011.0
20260901164504 64 290 2.0 6.0 0.00 0.00 0.00 85 1011.0
20260901164005 64 273 2.0 8.0 0.00 0.00 0.00 85 1011.0
20260901163503 64 258 3.0 8.0 0.00 0.00 0.00 85 1011.0
20260901163005 64 268 1.0 7.0 0.00 0.00 0.00 85 1011.0
20260901162503 64 258 1.0 4.0 0.00 0.00 0.00 85 1011.0
20260901162005 64 252 1.0 6.0 0.00 0.00 0.00 85 1011.0
20260901161504 64 250 2.0 7.0 0.00 0.00 0.00 85 1011.0
20260901161005 65 254 2.0 8.0 0.00 0.00 0.00 84 1010.0
20260901160503 65 253 2.0 8.0 0.00 0.00 0.00 84 1010.0
20260901160004 65 265 3.0 8.0 0.00 0.00 0.00 84 1010.0
20260901155503 65 279 5.0 10.0 0.00 0.00 0.00 83 1010.0
20260901155005 65 290 5.0 12.0 0.00 0.00 0.00 82 1010.0
20260901154005 66 284 5.0 10.0 0.00 0.00 0.00 82 1010.0
20260901153504 66 267 3.0 10.0 0.00 0.00 0.00 83 1010.0
20260901153005 66 261 3.0 8.0 0.00 0.00 0.00 83 1010.0
20260901152503 66 275 3.0 10.0 0.00 0.00 0.00 83 1010.0
20260901152005 66 279 3.0 10.0 0.00 0.00 0.00 82 1010.0
20260901151504 66 281 4.0 8.0 0.00 0.00 0.00 82 1010.0
20260901151005 66 261 3.0 8.0 0.00 0.00 0.00 82 1010.0
20260901150504 66 270 2.0 7.0 0.00 0.00 0.00 83 1010.0
20260901150005 66 281 4.0 12.0 0.00 0.00 0.00 82 1010.0
20260901145504 66 284 6.0 12.0 0.00 0.00 0.00 80 1010.0
20260901144503 67 270 3.0 9.0 0.00 0.00 0.00 82 1010.0
20260901143503 66 268 3.0 8.0 0.00 0.00 0.00 80 1010.0
20260901143005 67 261 4.0 11.0 0.00 0.00 0.00 82 1010.0
20260901142505 67 275 6.0 11.0 0.00 0.00 0.00 81 1010.0
20260901142005 67 269 5.0 9.0 0.00 0.00 0.00 79 1010.0
20260901141504 67 268 4.0 8.0 0.00 0.00 0.00 81 1010.0
20260901141005 67 276 4.0 8.0 0.00 0.00 0.00 81 1010.0
20260901140503 67 276 2.0 5.0 0.00 0.00 0.00 83 1010.0
20260901140004 66 265 2.0 10.0 0.00 0.00 0.00 84 1010.0
20260901135503 66 268 2.0 10.0 0.00 0.00 0.00 83 1010.0
20260901134503 66 259 2.0 6.0 0.00 0.00 0.00 82 1010.0
20260901134004 67 266 3.0 11.0 0.00 0.00 0.00 82 1010.0
20260901133503 67 265 5.0 11.0 0.00 0.00 0.00 82 1010.0
20260901132005 66 261 2.0 10.0 0.00 0.00 0.00 83 1010.0
20260901131504 66 261 3.0 10.0 0.00 0.00 0.00 83 1010.0
20260901130503 67 271 2.0 10.0 0.00 0.00 0.00 82 1010.0
20260901130005 67 275 2.0 6.0 0.00 0.00 0.00 84 1010.0
20260901125504 66 279 2.0 6.0 0.00 0.00 0.00 83 1010.0
20260901125005 66 276 4.0 10.0 0.00 0.00 0.00 83 1010.0
20260901124503 66 278 5.0 10.0 0.00 0.00 0.00 83 1010.0
20260901124005 66 271 4.0 10.0 0.00 0.00 0.00 82 1010.0
20260901123504 66 271 3.0 9.0 0.00 0.00 0.00 83 1010.0
20260901123005 66 279 3.0 9.0 0.00 0.00 0.00 83 1010.0
20260901122504 67 258 3.0 9.0 0.00 0.00 0.00 84 1010.0
20260901122005 67 268 4.0 14.0 0.00 0.00 0.00 84 1010.0
20260901121504 66 281 4.0 14.0 0.00 0.00 0.00 83 1010.0
20260901121005 66 281 4.0 10.0 0.00 0.00 0.00 83 1010.0
20260901120504 66 282 6.0 14.0 0.00 0.00 0.00 82 1010.0
20260901120005 66 274 6.0 14.0 0.00 0.00 0.00 82 1010.0